Torna al catalogo

CZ-6A DEB

AttivoPO
NORAD 61323·DEBRIS·🇨🇳 China

Lanciato Aug 6, 2024 da Taiyuan Satellite Launch Center

Loading…

Prossimi Passaggi (prossime 24 ore)

TLE

AggiornatoSource: Space-Track

Epoca: Sep 14, 2026, 10:18 UTC

1 61323U 24140UL  26257.42928686  .00004635  00000-0  88911-3 0  9991
2 61323  88.8437 244.4533 0072114 306.1760  53.2796 14.61934058107908

Traccia CZ-6A DEB in tempo reale con AllMySat

Download on the App Store